Regional Weather Roundup
Issued by NWS

Home | Current Version | Previous Version | Graphics & Text | Print | Product List | Glossary On
Versions: 1 2 3 4 5 6 7 8 9 10 11 12 13 14 15 16 17 18 19 20 21 22 23 24 25 26 27 28 29 30 31 32 33 34 35 36 37 38 39 40 41 42 43 44 45 46 47 48 49 50
000
ASUS45 KCYS 300110
RWRWY

WYOMING REGIONAL WEATHER ROUNDUP
NATIONAL WEATHER SERVICE CHEYENNE WY
700 PM MDT FRI AUG 29 2014

NOTE:  "FAIR" INDICATES FEW OR NO CLOUDS BELOW 12,000 FEET
WITH NO SIGNIFICANT WEATHER AND/OR OBSTRUCTIONS TO VISIBILITY.

WYZ001-300200-
YELLOWSTONE NATIONAL PARK

CITY           SKY/WX    TMP DP  RH WIND       PRES   REMARKS
LK YELLOWSTONE   N/A     64  35  34 VRB5      30.21S
W YELLOWSTONE  NOT AVBL

$$
WYZ002>013-054>058-071-098>099-300200-
NORTHERN WYOMING

CITY           SKY/WX    TMP DP  RH WIND       PRES   REMARKS
JACKSON        SUNNY     73  37  27 CALM      30.11S
CODY           PTCLDY    77  46  33 SE7       29.98S
GREYBULL       CLEAR     81  43  26 S5        29.91F
WORLAND        CLEAR     81  39  22 E8        29.93F
SHERIDAN       CLEAR     75  51  43 VRB3      29.97F
BUFFALO        CLEAR     72  46  39 E3        30.04F
GILLETTE       CLEAR     72  50  45 E9        30.01F
HULETT         FAIR      70  52  52 MISG      30.04
NEWCASTLE      FAIR      72  37  28 NW5       30.02

$$
WYZ014>020-022>026-101>103-300200-
CENTRAL WYOMING

CITY           SKY/WX    TMP DP  RH WIND       PRES   REMARKS
BIG PINEY      MOSUNNY   69  39  33 NW9       30.16F
PINEDALE       CLEAR     70  34  26 NW5       30.18R
DUBOIS         FAIR      68  34  28 NW10      30.14S
LANDER         MOCLDY    80  42  25 NE5       30.00S
RIVERTON       CLEAR     79  40  24 E7        30.01F
CASPER         PTCLDY    75  41  29 E10       30.04F
DOUGLAS        LGT RAIN  66  52  60 NE10      30.06R

$$
WYZ021-027>030-104>119-300200-
SOUTHERN WYOMING

CITY           SKY/WX    TMP DP  RH WIND       PRES   REMARKS
EVANSTON       MOSUNNY   71  37  28 W13       30.19F
KEMMERER       PTCLDY    70  36  28 W10       30.20S
FORT BRIDGER   FAIR      75  37  25 W3        30.21F
ROCK SPRINGS   CLEAR     72  32  23 W15       30.14S
DIXON          FAIR      72  45  37 SW8       30.18R
RAWLINS        CLEAR     73  32  22 NW6       30.14F
SARATOGA       FAIR      64  43  45 W3        30.17S
LARAMIE        MOCLDY    62  49  62 SE7       30.19S
CHEYENNE       CLOUDY    65  48  54 S12       30.15R
TORRINGTON     CLEAR     74  48  39 NE9       30.01R
PINE BLUFFS    FAIR      68  52  56 SE3       30.09S

$$


USA.gov is the U.S. government's official web portal to all federal, state and local government web resources and services.